Location: Wapato
(46.4478°N, 120.4212°W)
Time: 00:08:36
(UTC+00:00)

Courier 1B - All Passes

Search period start: 12 May 2026 00:00
Search period end: 22 May 2026 00:00
Orbit: 962 x 1209 km, 28.3° (Epoch: 11 May)

Date Brightness Start Highest point End Pass type
(mag) Time Alt. Az. Time Alt. Az. Time Alt. Az.
12 May - 18:11:06 10° SSW 18:15:29 16° SSE 18:19:54 10° SE daylight
12 May - 20:03:11 10° SW 20:08:27 20° S 20:13:43 10° SE daylight
12 May - 21:57:31 10° SW 22:01:23 14° SSW 22:05:14 10° SSE daylight
13 May - 17:18:15 10° S 17:21:47 14° SSE 17:25:23 10° SE daylight
13 May - 19:09:31 10° SW 19:14:43 20° S 19:19:57 10° SE daylight
13 May - 21:03:08 10° SW 21:07:42 17° SSW 21:12:14 10° SSE daylight
14 May - 16:26:11 10° S 16:28:09 11° SSE 16:30:09 10° SE daylight
14 May - 18:16:01 10° SSW 18:20:58 19° S 18:26:01 10° SE daylight
14 May - 20:09:02 10° SW 20:13:58 18° S 20:18:56 10° SSE daylight
14 May - 22:06:04 10° SSW 22:06:49 10° SSW 22:07:34 10° SSW daylight
15 May - 17:22:44 10° SSW 17:27:16 17° SSE 17:31:54 10° SE daylight
15 May - 19:15:10 10° SW 19:20:14 19° S 19:25:23 10° SE daylight
15 May - 21:10:02 10° SW 21:13:09 13° SSW 21:16:17 10° S daylight
16 May - 16:29:44 10° SSW 16:33:36 15° SSE 16:37:33 10° SE daylight
16 May - 18:21:28 10° SW 18:26:30 19° S 18:31:40 10° SE daylight
16 May - 20:15:27 10° SW 20:19:28 15° SSW 20:23:32 10° SSE daylight
17 May - 15:37:14 10° S 15:39:59 12° SSE 15:42:46 10° SE daylight
17 May - 17:27:56 10° SW 17:32:48 19° S 17:37:48 10° SE daylight
17 May - 19:21:16 10° SW 19:25:46 17° S 19:30:21 10° SSE daylight
18 May - 16:34:36 10° SSW 16:39:07 17° S 16:43:46 10° SE daylight
18 May - 18:27:20 10° SW 18:32:04 18° S 18:36:53 10° SSE daylight
18 May - 20:23:25 10° SSW 20:24:55 11° SSW 20:26:26 10° S daylight
19 May - 15:41:30 10° SSW 15:45:28 16° SSE 15:49:33 10° SE daylight
19 May - 17:33:36 10° SW 17:38:22 18° S 17:43:15 10° SE daylight
19 May - 19:28:08 10° SW 19:31:15 13° SSW 19:34:25 10° S daylight
20 May - 14:48:46 10° S 14:51:51 13° SSE 14:55:02 10° SE daylight
20 May - 16:40:02 10° SW 16:44:40 18° S 16:49:27 10° SE daylight
20 May - 18:33:45 10° SW 18:37:35 15° SSW 18:41:30 10° SSE daylight
21 May - 13:56:53 10° S 13:58:18 11° SSE 13:59:44 10° SSE daylight
21 May - 15:46:39 10° SSW 15:51:01 17° S 15:55:32 10° SE daylight
21 May - 17:39:44 10° SW 17:43:55 16° S 17:48:13 10° SSE daylight
